[[{"header":{"parameterUnit":"m.s-1","parameterCategory":1,"la1":30.2991,"la2":30.254,"lo1":-89.0895,"lo2":-89.0444,"dy":0.0017,"dx":0.0017,"nx":28,"ny":28,"refTime":"2025-01-20T03:00:00:Z","depth":0,"parameterNumber":2,"parameterNumberName":"U-component_of_WINDS"},"data":[0,0,0,0,0,0,0,0,0,0,0,0,0,0,0,0,0,0,0,0,0,0,0,0,0,0,0,0,0,0,0,0,0,0,0,0,0,0,0,0,0,0,0,0,0,0,0,0,0,0,0,0,0,0,0,0,0,0,-0.8704,-0.8703,0,-0.8578,-0.8577,-0.8575,-0.8458,-0.8456,-0.8455,-0.8453,-0.8325,-0.8323,-0.8321,0,0,0,0,0,0,0,0,0,0,0,0,0,-0.8842,-0.884,-0.8704,-0.8703,-0.8701,-0.8579,-0.8577,-0.8575,-0.8458,-0.8456,-0.8454,-0.8453,-0.8326,-0.8323,-0.8321,0,0,0,0,0,0,0,0,0,0,0,0,0,-0.8756,-0.8839,-0.8704,-0.8628,-0.862,-0.8579,-0.8577,-0.8575,-0.8458,-0.8456,-0.8454,-0.8452,-0.8326,-0.8323,-0.832,-0.8345,0,0,-0.8311,-0.831,0,0,0,0,0,0,0,0,-0.8761,-0.8751,-0.8641,-0.8633,-0.8624,-0.8531,-0.8578,-0.8498,-0.8459,-0.852,-0.8453,-0.8451,-0.8395,-0.8387,-0.8368,-0.8339,-0.8334,-0.8311,-0.8309,-0.8308,-0.8307,0,0,0,0,0,0,0,-0.8767,-0.8756,-0.8654,-0.8639,-0.8629,-0.8599,-0.8585,-0.8562,-0.8471,-0.8514,-0.8505,-0.8492,-0.839,-0.8371,-0.8364,-0.8332,-0.8311,-0.8308,-0.8306,-0.8305,-0.8316,-0.8318,0,0,0,0,0,0,-0.8785,-0.8761,-0.8658,-0.8651,-0.8688,-0.8599,-0.8582,-0.8563,-0.8471,-0.8455,-0.8494,-0.8487,-0.8377,-0.8368,-0.8359,-0.8381,-0.8308,-0.8305,-0.8303,-0.8314,-0.8316,-0.8319,0,0,0,0,0,0,-0.8788,-0.8777,-0.8663,-0.8703,-0.8687,-0.8599,-0.8578,-0.8562,-0.8542,-0.8456,-0.8439,-0.8491,-0.8375,-0.8363,-0.8349,-0.8375,-0.8303,-0.8301,-0.8311,-0.8315,-0.8318,-0.8427,0,0,0,0,0,0,-0.8793,-0.8779,-0.8788,-0.8705,-0.8685,-0.8657,-0.858,-0.8561,-0.8537,-0.8527,-0.8449,-0.8434,-0.8373,-0.8355,-0.8346,-0.837,-0.8298,-0.8309,-0.8313,-0.8317,-0.8421,-0.8434,-0.8445,0,0,0,0,0,-0.8798,-0.8824,-0.8789,-0.8777,-0.8695,-0.8658,-0.8647,-0.8576,-0.854,-0.8548,-0.8492,-0.8436,-0.8374,-0.8354,-0.8344,-0.8367,-0.8307,-0.8312,-0.8316,-0.8416,-0.8431,-0.8445,0,0,0,0,0,0,-0.8913,-0.8812,-0.8772,-0.8772,-0.8724,-0.8639,-0.8647,-0.8595,-0.8558,-0.855,-0.8463,-0.8446,-0.8442,-0.8403,-0.8383,-0.8385,-0.8332,-0.8335,-0.8411,-0.8426,-0.8437,-0.8447,-0.8296,0,0,0,0,0,-0.8938,-0.8917,-0.883,-0.8838,-0.8817,-0.8736,-0.8718,-0.8667,-0.8615,-0.8594,-0.8537,-0.8489,-0.8457,-0.8439,-0.8406,-0.8414,-0.8395,-0.8425,-0.8437,-0.8447,-0.8451,-0.8451,-0.8463,-0.8335,-0.8335,-0.8334,0,0,-0.899,-0.8932,-0.8925,-0.886,-0.8817,-0.8797,-0.872,-0.8703,-0.8687,-0.8591,-0.8575,-0.8531,-0.8471,-0.8468,-0.8464,-0.8435,-0.8482,-0.8453,-0.8462,-0.846,-0.8457,-0.8469,-0.848,-0.8338,-0.8337,-0.8337,0,0,-0.9075,-0.903,-0.9031,-0.899,-0.8926,-0.8872,-0.8873,-0.8794,-0.8761,-0.8743,-0.8671,-0.865,-0.8599,-0.8559,-0.8532,-0.8599,-0.8546,-0.8591,-0.8654,-0.8655,-0.8665,-0.8674,-0.8697,-0.8707,-0.8595,-0.8595,-0.8595,0,-0.9149,-0.9116,-0.9039,-0.9025,-0.8998,-0.891,-0.8911,-0.8874,-0.8804,-0.8787,-0.8755,-0.8688,-0.8642,-0.8627,-0.8644,-0.8625,-0.8622,-0.86,-0.867,-0.8678,-0.8684,-0.8706,-0.8715,-0.8601,-0.86,-0.86,-0.8599,0,-0.9208,-0.9187,-0.9195,-0.9129,-0.9103,-0.9097,-0.9018,-0.9001,-0.8952,-0.8901,-0.8882,-0.8823,-0.8776,-0.8768,-0.8721,-0.8747,-0.8731,-0.8686,-0.8631,-0.8704,-0.8723,-0.873,-0.8609,-0.8607,-0.8606,-0.8604,0,0,-0.9364,-0.9253,-0.9258,-0.9226,-0.9148,-0.913,-0.9119,-0.9072,-0.9059,-0.9012,-0.9001,-0.8959,-0.8916,-0.8885,-0.8832,-0.8833,-0.8889,-0.8787,-0.8784,-0.8808,-0.8914,-0.8948,-0.8959,-0.8853,-0.8854,-0.8855,-0.8919,0,-0.9436,-0.9412,-0.9341,-0.9338,-0.9316,-0.9232,-0.9222,-0.9173,-0.9125,-0.9099,-0.9045,-0.9016,-0.8962,-0.8943,-0.894,-0.8884,-0.891,-0.8878,-0.8841,-0.8841,-0.8859,-0.8969,-0.9006,-0.9069,-0.8925,-0.8927,-0.8927,0,-0.9517,-0.9476,-0.9471,-0.9393,-0.9381,-0.9374,-0.9325,-0.9301,-0.9243,-0.9208,-0.9173,-0.9113,-0.9096,-0.9045,-0.9019,-0.8999,-0.898,-0.8949,-0.895,-0.8944,-0.8889,-0.8967,-0.9087,-0.9097,-0.8938,-0.8938,-0.8937,0,-0.9631,-0.9574,-0.9563,-0.9538,-0.9448,-0.9444,-0.9406,-0.9346,-0.9322,-0.9278,-0.9262,-0.9217,-0.9193,-0.916,-0.9089,-0.9058,-0.9071,-0.9014,-0.9041,-0.9043,-0.9048,-0.9049,-0.9168,-0.9036,-0.9035,-0.9035,-0.9035,0,-0.972,-0.972,-0.9613,-0.9607,-0.9604,-0.9522,-0.9521,-0.9475,-0.9422,-0.9404,-0.9328,-0.9313,-0.922,-0.9194,-0.9138,-0.9125,-0.9115,-0.9085,-0.9071,-0.9093,-0.9096,-0.9079,-0.9073,-0.9038,-0.9037,-0.9037,-0.9036,0,-0.9847,-0.9776,-0.9758,-0.9673,-0.9651,-0.9653,-0.9579,-0.9569,-0.9516,-0.9494,-0.9484,-0.94,-0.9365,-0.9291,-0.9236,-0.9199,-0.9199,-0.9173,-0.9219,-0.921,-0.9241,-0.9239,-0.9353,-0.9363,-0.9225,-0.9226,-0.9228,0,-0.9909,-0.9907,-0.9821,-0.9804,-0.9768,-0.9742,-0.9716,-0.9635,-0.9612,-0.9545,-0.9543,-0.9502,-0.9465,-0.9413,-0.9346,-0.9303,-0.9275,-0.9318,-0.9269,-0.929,-0.9276,-0.9277,-0.9276,-0.933,-0.9332,-0.9333,-0.9334,0,-1.0025,-0.999,-0.9956,-0.9911,-0.9883,-0.9843,-0.9798,-0.9788,-0.9696,-0.9674,-0.9637,-0.9608,-0.9551,-0.9512,-0.9458,-0.9418,-0.9361,-0.935,-0.9354,-0.9377,-0.9403,-0.9389,-0.9249,-0.9348,-0.9347,-0.9346,-0.9345,-0.9345,-1.0121,-1.0115,-1.0054,-1.0019,-0.9977,-0.9937,-0.9923,-0.9867,-0.9835,-0.9783,-0.9736,-0.9704,-0.9643,-0.9566,-0.9529,-0.9502,-0.9473,-0.9479,-0.9481,-0.9484,-0.9493,-0.9407,-0.9492,-0.9491,-0.9491,-0.949,-0.949,0,-1.0234,-1.019,-1.0159,-1.0099,-1.0071,-1.0019,-0.9967,-0.9947,-0.9919,-0.9868,-0.9833,-0.979,-0.975,-0.968,-0.9634,-0.9626,-0.9598,-0.9616,-0.9616,-0.9608,-0.9521,-0.9522,-0.9639,-0.9639,-0.9639,-0.9639,-0.9639,-0.9639,-1.029,-1.0276,-1.0233,-1.0198,-1.0153,-1.012,-1.0095,-1.0057,-1.0016,-0.9971,-0.9938,-0.9892,-0.9833,-0.9781,-0.9742,-0.9722,-0.9709,-0.9736,-0.9708,-0.9628,-0.9614,-0.9601,-0.9601,-0.9733,-0.9734,-0.9797,-0.9797,-0.9798]},{"header":{"parameterUnit":"m.s-1","parameterCategory":1,"la1":30.2991,"la2":30.254,"lo1":-89.0895,"lo2":-89.0444,"dy":0.0017,"dx":0.0017,"nx":28,"ny":28,"refTime":"2025-01-20T03:00:00:Z","depth":0,"parameterNumber":3,"parameterNumberName":"V-component_of_WINDS"},"data":[0,0,0,0,0,0,0,0,0,0,0,0,0,0,0,0,0,0,0,0,0,0,0,0,0,0,0,0,0,0,0,0,0,0,0,0,0,0,0,0,0,0,0,0,0,0,0,0,0,0,0,0,0,0,0,0,0,0,-10.0453,-10.0454,0,-10.0593,-10.0595,-10.0596,-10.0419,-10.0413,-10.0406,-10.04,-10.0539,-10.0548,-10.0558,0,0,0,0,0,0,0,0,0,0,0,0,0,-10.0029,-10.0038,-10.0453,-10.0455,-10.0456,-10.0593,-10.0595,-10.0597,-10.042,-10.0413,-10.0405,-10.0397,-10.0536,-10.0547,-10.0559,0,0,0,0,0,0,0,0,0,0,0,0,0,-10.0196,-10.0041,-10.0452,-10.0385,-10.038,-10.0592,-10.0595,-10.0597,-10.0422,-10.0412,-10.0403,-10.0394,-10.0532,-10.0546,-10.056,-10.0844,0,0,-10.0605,-10.0611,0,0,0,0,0,0,0,0,-10.0186,-10.0211,-10.0393,-10.039,-10.0385,-10.0479,-10.0496,-10.068,-10.0425,-10.0406,-10.04,-10.0389,-10.0526,-10.0541,-10.0588,-10.085,-10.0856,-10.0606,-10.0615,-10.0621,-10.0625,0,0,0,0,0,0,0,-10.0175,-10.0204,-10.0508,-10.0396,-10.0391,-10.0346,-10.0359,-10.053,-10.0519,-10.0407,-10.0395,-10.0414,-10.0522,-10.0575,-10.059,-10.0858,-10.0606,-10.0619,-10.0628,-10.0633,-10.1362,-10.1372,0,0,0,0,0,0,-10.0172,-10.0196,-10.0503,-10.0512,-10.026,-10.0362,-10.0377,-10.0459,-10.0516,-10.0516,-10.0422,-10.0405,-10.0555,-10.0573,-10.0594,-10.0932,-10.0621,-10.0635,-10.0643,-10.1352,-10.1364,-10.1376,0,0,0,0,0,0,-10.0163,-10.0201,-10.0498,-10.0351,-10.0385,-10.038,-10.0473,-10.0466,-10.0518,-10.0528,-10.0524,-10.0478,-10.0548,-10.0574,-10.0784,-10.0934,-10.0641,-10.0655,-10.1339,-10.1355,-10.137,-10.1608,0,0,0,0,0,0,-10.0152,-10.0199,-10.0308,-10.0355,-10.0394,-10.0687,-10.0482,-10.0476,-10.0545,-10.0524,-10.0579,-10.0579,-10.0542,-10.0763,-10.0799,-10.0949,-10.0666,-10.1325,-10.1346,-10.1365,-10.1587,-10.163,-10.1667,0,0,0,0,0,-10.0138,-10.0367,-10.0314,-10.0352,-10.0529,-10.0696,-10.0718,-10.0673,-10.0557,-10.0666,-10.0672,-10.0577,-10.0912,-10.0786,-10.0824,-10.0981,-10.1316,-10.134,-10.1364,-10.1569,-10.1622,-10.1666,0,0,0,0,0,0,-10.0335,-10.0372,-10.0313,-10.0565,-10.063,-10.0666,-10.0801,-10.073,-10.0826,-10.0802,-10.074,-10.0754,-10.0979,-10.1,-10.086,-10.126,-10.1095,-10.1127,-10.1237,-10.1288,-10.1327,-10.1318,-10.0678,0,0,0,0,0,-10.0409,-10.0543,-10.0566,-10.0787,-10.0822,-10.0807,-10.0878,-10.0837,-10.09,-10.0926,-10.0947,-10.1011,-10.113,-10.121,-10.132,-10.1589,-10.1599,-10.1715,-10.1756,-10.1789,-10.1818,-10.1963,-10.2016,-10.1454,-10.1454,-10.1454,0,0,-10.0561,-10.0597,-10.0685,-10.0828,-10.0872,-10.1011,-10.0831,-10.0985,-10.1087,-10.0948,-10.1149,-10.1168,-10.1234,-10.1476,-10.1583,-10.1501,-10.1975,-10.1819,-10.1845,-10.1857,-10.1994,-10.2047,-10.2094,-10.1471,-10.1468,-10.1465,0,0,-10.091,-10.0951,-10.114,-10.1189,-10.126,-10.1249,-10.1295,-10.1343,-10.1351,-10.1552,-10.1451,-10.1571,-10.1778,-10.183,-10.1884,-10.2256,-10.2173,-10.2293,-10.2504,-10.2647,-10.2691,-10.273,-10.2864,-10.2913,-10.2322,-10.2323,-10.2323,0,-10.1089,-10.1296,-10.1245,-10.1408,-10.1474,-10.1357,-10.1548,-10.1598,-10.1701,-10.1749,-10.1655,-10.1914,-10.195,-10.2204,-10.2295,-10.2342,-10.2392,-10.2287,-10.2689,-10.2727,-10.2763,-10.289,-10.2941,-10.2337,-10.2336,-10.2334,-10.2333,0,-10.1515,-10.166,-10.1804,-10.191,-10.1991,-10.2167,-10.2142,-10.2231,-10.2184,-10.2183,-10.239,-10.243,-10.2547,-10.2604,-10.2558,-10.2852,-10.2799,-10.2699,-10.2532,-10.2832,-10.295,-10.2998,-10.2358,-10.2353,-10.2348,-10.2345,0,0,-10.1991,-10.2068,-10.2122,-10.2169,-10.224,-10.2351,-10.2522,-10.2639,-10.2717,-10.2792,-10.2934,-10.3113,-10.3022,-10.3083,-10.3042,-10.3168,-10.3462,-10.3052,-10.3052,-10.3128,-10.379,-10.3866,-10.3923,-10.3407,-10.3416,-10.3423,-10.3784,0,-10.2341,-10.2639,-10.2599,-10.2885,-10.3019,-10.2911,-10.306,-10.312,-10.3124,-10.3237,-10.324,-10.3369,-10.3238,-10.3274,-10.3394,-10.3401,-10.3594,-10.3374,-10.3539,-10.3545,-10.3527,-10.3985,-10.4065,-10.4404,-10.383,-10.3838,-10.3844,0,-10.2789,-10.2884,-10.3185,-10.3238,-10.3292,-10.3427,-10.3532,-10.3642,-10.3708,-10.3702,-10.3773,-10.371,-10.3881,-10.3711,-10.3946,-10.3797,-10.3862,-10.3876,-10.3888,-10.3902,-10.3713,-10.4012,-10.451,-10.4562,-10.3916,-10.391,-10.3905,0,-10.3109,-10.3311,-10.3518,-10.3561,-10.3627,-10.3725,-10.3757,-10.3813,-10.3887,-10.3978,-10.4025,-10.4135,-10.4195,-10.4281,-10.425,-10.4129,-10.4492,-10.4319,-10.4492,-10.4493,-10.4573,-10.4569,-10.5091,-10.4614,-10.4613,-10.4612,-10.4611,0,-10.3505,-10.3693,-10.3662,-10.379,-10.3998,-10.395,-10.4156,-10.4174,-10.4226,-10.4354,-10.4266,-10.4388,-10.4339,-10.4458,-10.4435,-10.4634,-10.4661,-10.4661,-10.4653,-10.467,-10.467,-10.4712,-10.4688,-10.4626,-10.4623,-10.462,-10.4618,0,-10.3896,-10.3883,-10.4102,-10.4148,-10.4164,-10.4315,-10.4354,-10.4473,-10.4471,-10.4635,-10.467,-10.4666,-10.4802,-10.478,-10.4929,-10.4913,-10.5163,-10.5124,-10.5142,-10.5133,-10.5308,-10.5293,-10.5875,-10.595,-10.5424,-10.5429,-10.5434,0,-10.4151,-10.4294,-10.4356,-10.4437,-10.4477,-10.4608,-10.4683,-10.4642,-10.4724,-10.4811,-10.492,-10.5049,-10.5149,-10.5371,-10.5381,-10.5495,-10.546,-10.5657,-10.5476,-10.549,-10.5465,-10.5458,-10.5472,-10.5692,-10.5698,-10.5703,-10.5707,0,-10.4604,-10.4591,-10.4704,-10.4818,-10.4912,-10.4998,-10.5075,-10.5146,-10.5111,-10.5208,-10.5347,-10.5426,-10.558,-10.5709,-10.5817,-10.5847,-10.5774,-10.5764,-10.581,-10.583,-10.5835,-10.5836,-10.524,-10.5751,-10.5746,-10.5743,-10.5741,-10.5739,-10.4935,-10.5058,-10.5123,-10.5253,-10.5307,-10.5382,-10.5498,-10.5511,-10.5627,-10.5751,-10.5719,-10.5878,-10.594,-10.6077,-10.6121,-10.6243,-10.617,-10.6237,-10.6254,-10.6272,-10.6294,-10.5815,-10.6262,-10.6261,-10.626,-10.6259,-10.6258,0,-10.5385,-10.5422,-10.5542,-10.5655,-10.5758,-10.5681,-10.5763,-10.5854,-10.5995,-10.6061,-10.6163,-10.6324,-10.6449,-10.647,-10.6589,-10.6683,-10.6652,-10.6716,-10.6709,-10.6718,-10.6351,-10.63,-10.6739,-10.6739,-10.6739,-10.6739,-10.6739,-10.6739,-10.5632,-10.5837,-10.5832,-10.6063,-10.6097,-10.6254,-10.6308,-10.6377,-10.643,-10.6614,-10.6719,-10.6733,-10.6781,-10.6903,-10.7015,-10.7017,-10.7066,-10.7144,-10.7134,-10.6791,-10.6743,-10.6697,-10.6649,-10.7154,-10.7155,-10.749,-10.7493,-10.7495]}]]